Home > Weather > Unalaska > Past weeks

Flag for USA Past Weather in Unalaska, Alaska, USA — Yesterday and Last 2 Weeks

Now
53 °F

Overcast.


Feels Like: 53 °F
Forecast: 54 / 58 °F
Wind: No wind

Location: Dutch Harbor

Current Time: Aug 24, 2016 at 12:55:52 AM

Latest Report: Aug 23, 2016 at 11:56 PM


Visibility: 10 mi

Pressure: 29.89 "Hg

Humidity: 93%

Dew Point: 51 °F

Location of UnalaskaLocation

Past Weather in Unalaska — Graph

°F

Unalaska Temperature Yesterday

Maximum temperature yesterday: 57 °F (at 2:56 PM)
Minimum temperature yesterday: 52 °F (at 8:03 AM)
Average temperature yesterday: 54 °F

High & Low Weather Summary for the Past Weeks

 TemperatureHumidityPressure
High60 °F (Aug 20, 8:59 PM)100% (Aug 16, 2:52 AM)30.39 "Hg (Aug 16, 2:52 AM)
Low50 °F (Aug 15, 3:56 AM)63% (Aug 20, 12:59 PM)29.38 "Hg (Aug 13, 5:56 AM)
Average55 °F83%29.82 "Hg
* Reported Aug 9 2:56 AM — Aug 23 10:46 PM, Unalaska, Weather by CustomWeather, © 2016

Note: Actual official high and low records may vary slightly from our data, if they occured in-between our weather recording intervals... More about our weather records

Advertising

Unalaska Weather History for the Previous 24 Hours

Scroll right to see more
 ConditionsComfort  
Time TempWeatherWind HumidityBarometerVisibility
10:46 PM
Tue, Aug 23
54 °FFog.6 mph94%29.87 "Hg3 mi
9:56 PM54 °FFog.8 mph93%29.85 "Hg2 mi
8:56 PM54 °FMore clouds than sun.6 mph93%29.84 "Hg8 mi
7:59 PM55 °FMore clouds than sun.No wind87%29.83 "Hg10 mi
6:59 PM55 °FBroken clouds.10 mph87%29.82 "Hg10 mi
5:56 PM57 °FFog.8 mph83%29.81 "Hg2 mi
4:56 PM56 °FCloudy.6 mph84%29.80 "Hg10 mi
3:59 PM55 °FCloudy.14 mph88%29.79 "Hg10 mi
2:56 PM57 °FBroken clouds.10 mph81%29.78 "Hg10 mi
1:59 PM54 °FBroken clouds.5 mph86%29.77 "Hg10 mi
12:59 PM54 °FMore clouds than sun.No wind86%29.77 "Hg10 mi
11:56 AM53 °FMore clouds than sun.No wind89%29.76 "Hg10 mi
10:56 AM53 °FMore clouds than sun.3 mph86%29.75 "Hg10 mi
9:59 AM53 °FMore clouds than sun.No wind86%29.74 "Hg10 mi
8:56 AM52 °FMostly cloudy.No wind89%29.72 "Hg10 mi
8:03 AM52 °FMostly cloudy.No wind88%29.70 "Hg10 mi
7:56 AM52 °FOvercast.No wind89%29.70 "Hg10 mi
6:59 AM53 °FOvercast.6 mph86%29.68 "Hg10 mi
5:59 AM52 °FOvercast.No wind89%29.67 "Hg10 mi
4:56 AM53 °FOvercast.5 mph86%29.66 "Hg10 mi
2:56 AM53 °FOvercast.6 mph86%29.64 "Hg10 mi
12:56 AM53 °FOvercast.6 mph89%29.63 "Hg10 mi
Weather by CustomWeather, © 2016

See weather overviewHow to use our weather pages